Time,TemperatureF,DewpointF,PressureIn,WindDirection,WindDirectionDegrees,WindSpeedMPH,WindSpeedGustMPH,Humidity,HourlyPrecipIn,Conditions,Clouds,dailyrainin,SoftwareType,DateUTC
2015-08-27 00:04:00,62.0,55.0,-100.00,NW,305,0.0,2.0,79,-99.99,,,-99.99,,2015-08-27 04:04:00,
2015-08-27 00:13:00,62.0,55.0,-100.00,NW,310,0.0,0.0,78,-99.99,,,-99.99,,2015-08-27 04:13:00,
2015-08-27 00:23:00,62.0,55.0,-100.00,NNW,330,0.0,0.0,78,-99.99,,,-99.99,,2015-08-27 04:23:00,
2015-08-27 00:36:00,62.0,56.0,-100.00,NNW,330,0.0,0.0,81,-99.99,,,-99.99,,2015-08-27 04:36:00,
2015-08-27 00:44:00,62.0,56.0,-100.00,NNE,20,0.0,1.0,79,-99.99,,,-99.99,,2015-08-27 04:44:00,
2015-08-27 00:53:00,62.0,56.0,-100.00,NNE,20,0.0,0.0,80,-99.99,,,-99.99,,2015-08-27 04:53:00,
2015-08-27 01:03:00,62.0,57.0,-100.00,WNW,290,0.0,1.0,83,-99.99,,,-99.99,,2015-08-27 05:03:00,
2015-08-27 01:13:00,61.0,56.0,-100.00,WNW,290,0.0,1.0,84,-99.99,,,-99.99,,2015-08-27 05:13:00,
2015-08-27 01:23:00,61.0,56.0,-100.00,WNW,290,1.0,1.0,84,-99.99,,,-99.99,,2015-08-27 05:23:00,
2015-08-27 01:33:00,61.0,56.0,-100.00,West,275,1.0,2.0,84,-99.99,,,-99.99,,2015-08-27 05:33:00,
2015-08-27 01:44:00,61.0,56.0,-100.00,West,275,0.0,2.0,85,-99.99,,,-99.99,,2015-08-27 05:44:00,
2015-08-27 01:53:00,61.0,57.0,-100.00,West,275,1.0,1.0,86,-99.99,,,-99.99,,2015-08-27 05:53:00,
2015-08-27 02:03:00,61.0,56.0,-100.00,West,275,1.0,1.0,85,-99.99,,,-99.99,,2015-08-27 06:03:00,
2015-08-27 02:13:00,61.0,56.0,-100.00,West,275,0.0,1.0,84,-99.99,,,-99.99,,2015-08-27 06:13:00,
2015-08-27 02:23:00,61.0,56.0,-100.00,West,275,0.0,1.0,84,-99.99,,,-99.99,,2015-08-27 06:23:00,
2015-08-27 02:34:00,61.0,57.0,-100.00,West,275,0.0,1.0,87,-99.99,,,-99.99,,2015-08-27 06:34:00,
2015-08-27 02:44:00,61.0,57.0,-100.00,West,275,0.0,1.0,86,-99.99,,,-99.99,,2015-08-27 06:44:00,
2015-08-27 02:53:00,61.0,57.0,-100.00,West,275,0.0,1.0,86,-99.99,,,-99.99,,2015-08-27 06:53:00,
2015-08-27 03:13:00,61.0,56.0,-100.00,West,275,1.0,2.0,86,-99.99,,,-99.99,,2015-08-27 07:13:00,
2015-08-27 03:23:00,61.0,56.0,-100.00,ESE,120,0.0,0.0,85,-99.99,,,-99.99,,2015-08-27 07:23:00,
2015-08-27 03:33:00,61.0,56.0,-100.00,ESE,120,0.0,0.0,85,-99.99,,,-99.99,,2015-08-27 07:33:00,
2015-08-27 03:44:00,60.0,57.0,-100.00,WNW,285,1.0,2.0,87,-99.99,,,-99.99,,2015-08-27 07:44:00,
2015-08-27 03:53:00,60.0,56.0,-100.00,West,275,0.0,2.0,87,-99.99,,,-99.99,,2015-08-27 07:53:00,
2015-08-27 04:03:00,60.0,57.0,-100.00,West,275,0.0,0.0,88,-99.99,,,-99.99,,2015-08-27 08:03:00,
2015-08-27 04:13:00,60.0,57.0,-100.00,West,275,1.0,1.0,88,-99.99,,,-99.99,,2015-08-27 08:13:00,
2015-08-27 04:23:00,60.0,57.0,-100.00,West,275,0.0,1.0,88,-99.99,,,-99.99,,2015-08-27 08:23:00,
2015-08-27 04:33:00,61.0,57.0,-100.00,ENE,60,0.0,1.0,87,-99.99,,,-99.99,,2015-08-27 08:33:00,
2015-08-27 04:44:00,61.0,57.0,-100.00,North,5,0.0,1.0,87,-99.99,,,-99.99,,2015-08-27 08:44:00,
2015-08-27 04:53:00,60.0,57.0,-100.00,North,5,0.0,0.0,87,-99.99,,,-99.99,,2015-08-27 08:53:00,
2015-08-27 05:03:00,60.0,57.0,-100.00,WNW,300,1.0,1.0,88,-99.99,,,-99.99,,2015-08-27 09:03:00,
2015-08-27 05:13:00,60.0,57.0,-100.00,NW,305,0.0,1.0,89,-99.99,,,-99.99,,2015-08-27 09:13:00,
2015-08-27 05:23:00,60.0,57.0,-100.00,NW,305,0.0,1.0,89,-99.99,,,-99.99,,2015-08-27 09:23:00,
2015-08-27 05:33:00,60.0,57.0,-100.00,WNW,295,1.0,1.0,89,-99.99,,,-99.99,,2015-08-27 09:33:00,
2015-08-27 05:44:00,60.0,57.0,-100.00,WNW,295,0.0,0.0,89,-99.99,,,-99.99,,2015-08-27 09:44:00,
2015-08-27 05:53:00,60.0,57.0,-100.00,NNW,335,0.0,1.0,88,-99.99,,,-99.99,,2015-08-27 09:53:00,
2015-08-27 06:03:00,61.0,57.0,-100.00,NNW,330,1.0,2.0,86,-99.99,,,-99.99,,2015-08-27 10:03:00,
2015-08-27 06:13:00,61.0,56.0,-100.00,NNE,20,0.0,2.0,85,-99.99,,,-99.99,,2015-08-27 10:13:00,
2015-08-27 06:23:00,61.0,57.0,-100.00,East,85,0.0,1.0,88,-99.99,,,-99.99,,2015-08-27 10:23:00,
2015-08-27 06:34:00,60.0,56.0,-100.00,East,85,1.0,1.0,88,-99.99,,,-99.99,,2015-08-27 10:34:00,
2015-08-27 06:44:00,60.0,57.0,-100.00,NW,310,0.0,3.0,89,-99.99,,,-99.99,,2015-08-27 10:44:00,
2015-08-27 06:53:00,60.0,56.0,-100.00,North,0,0.0,1.0,86,-99.99,,,-99.99,,2015-08-27 10:53:00,
2015-08-27 07:04:00,60.0,56.0,-100.00,North,0,0.0,1.0,85,-99.99,,,-99.99,,2015-08-27 11:04:00,
2015-08-27 07:13:00,61.0,56.0,-100.00,North,0,0.0,1.0,83,-99.99,,,-99.99,,2015-08-27 11:13:00,
2015-08-27 07:23:00,61.0,56.0,-100.00,NNW,330,0.0,1.0,85,-99.99,,,-99.99,,2015-08-27 11:23:00,
2015-08-27 07:34:00,61.0,56.0,-100.00,WNW,300,1.0,2.0,85,-99.99,,,-99.99,,2015-08-27 11:34:00,
2015-08-27 07:44:00,60.0,56.0,-100.00,West,280,0.0,3.0,87,-99.99,,,-99.99,,2015-08-27 11:44:00,
2015-08-27 07:54:00,60.0,57.0,-100.00,WSW,255,1.0,2.0,87,-99.99,,,-99.99,,2015-08-27 11:54:00,
2015-08-27 08:03:00,61.0,57.0,-100.00,WSW,255,0.0,1.0,89,-99.99,,,-99.99,,2015-08-27 12:03:00,
2015-08-27 08:13:00,61.0,57.0,-100.00,WSW,255,0.0,1.0,88,-99.99,,,-99.99,,2015-08-27 12:13:00,
2015-08-27 08:23:00,61.0,56.0,-100.00,West,270,1.0,3.0,84,-99.99,,,-99.99,,2015-08-27 12:23:00,
2015-08-27 08:34:00,62.0,56.0,-100.00,West,270,0.0,2.0,81,-99.99,,,-99.99,,2015-08-27 12:34:00,
2015-08-27 08:44:00,62.0,56.0,-100.00,WNW,290,1.0,2.0,81,-99.99,,,-99.99,,2015-08-27 12:44:00,
2015-08-27 08:54:00,63.0,57.0,-100.00,NW,320,2.0,3.0,81,-99.99,,,-99.99,,2015-08-27 12:54:00,
2015-08-27 09:03:00,64.0,58.0,-100.00,NW,305,1.0,3.0,81,-99.99,,,-99.99,,2015-08-27 13:03:00,
2015-08-27 09:13:00,64.0,57.0,-100.00,WNW,300,1.0,3.0,77,-99.99,,,-99.99,,2015-08-27 13:13:00,
2015-08-27 09:23:00,66.0,57.0,-100.00,North,10,1.0,4.0,74,-99.99,,,-99.99,,2015-08-27 13:23:00,
2015-08-27 09:34:00,66.0,57.0,-100.00,East,85,1.0,4.0,73,-99.99,,,-99.99,,2015-08-27 13:34:00,
2015-08-27 09:43:00,65.0,56.0,-100.00,WNW,300,1.0,5.0,73,-99.99,,,-99.99,,2015-08-27 13:43:00,
2015-08-27 09:53:00,65.0,56.0,-100.00,NE,40,1.0,5.0,73,-99.99,,,-99.99,,2015-08-27 13:53:00,
2015-08-27 10:03:00,66.0,56.0,-100.00,NNE,25,2.0,4.0,72,-99.99,,,-99.99,,2015-08-27 14:03:00,
2015-08-27 10:13:00,66.0,56.0,-100.00,NW,310,1.0,4.0,71,-99.99,,,-99.99,,2015-08-27 14:13:00,
2015-08-27 10:23:00,67.0,56.0,-100.00,ENE,75,2.0,5.0,70,-99.99,,,-99.99,,2015-08-27 14:23:00,
2015-08-27 10:33:00,69.0,56.0,-100.00,East,80,1.0,3.0,64,-99.99,,,-99.99,,2015-08-27 14:33:00,
2015-08-27 10:43:00,68.0,55.0,-100.00,NW,310,1.0,5.0,64,-99.99,,,-99.99,,2015-08-27 14:43:00,
2015-08-27 10:53:00,68.0,55.0,-100.00,NNE,20,4.0,6.0,63,-99.99,,,-99.99,,2015-08-27 14:53:00,
2015-08-27 11:03:00,69.0,57.0,-100.00,WNW,290,1.0,9.0,64,-99.99,,,-99.99,,2015-08-27 15:03:00,
2015-08-27 11:13:00,69.0,55.0,-100.00,NE,35,4.0,6.0,61,-99.99,,,-99.99,,2015-08-27 15:13:00,
2015-08-27 11:23:00,70.0,56.0,-100.00,ENE,75,1.0,4.0,61,-99.99,,,-99.99,,2015-08-27 15:23:00,
2015-08-27 11:33:00,71.0,55.0,-100.00,East,90,1.0,4.0,57,-99.99,,,-99.99,,2015-08-27 15:33:00,
2015-08-27 11:44:00,71.0,55.0,-100.00,ENE,65,2.0,5.0,56,-99.99,,,-99.99,,2015-08-27 15:44:00,
2015-08-27 11:53:00,69.0,55.0,-100.00,East,95,1.0,4.0,61,-99.99,,,-99.99,,2015-08-27 15:53:00,
2015-08-27 12:04:00,69.0,54.0,-100.00,NNW,345,1.0,5.0,57,-99.99,,,-99.99,,2015-08-27 16:04:00,
2015-08-27 12:13:00,70.0,54.0,-100.00,WNW,285,1.0,5.0,57,-99.99,,,-99.99,,2015-08-27 16:13:00,
2015-08-27 12:23:00,70.0,55.0,-100.00,WNW,295,2.0,6.0,59,-99.99,,,-99.99,,2015-08-27 16:23:00,
2015-08-27 12:34:00,71.0,54.0,-100.00,NW,315,2.0,3.0,55,-99.99,,,-99.99,,2015-08-27 16:34:00,
2015-08-27 12:44:00,71.0,55.0,-100.00,WNW,290,2.0,4.0,56,-99.99,,,-99.99,,2015-08-27 16:44:00,
2015-08-27 12:54:00,72.0,53.0,-100.00,North,5,1.0,6.0,52,-99.99,,,-99.99,,2015-08-27 16:54:00,
2015-08-27 13:04:00,72.0,52.0,-100.00,NNE,25,1.0,4.0,49,-99.99,,,-99.99,,2015-08-27 17:04:00,
2015-08-27 13:13:00,72.0,53.0,-100.00,WNW,295,4.0,7.0,52,-99.99,,,-99.99,,2015-08-27 17:13:00,
2015-08-27 13:26:00,71.0,53.0,-100.00,West,280,2.0,6.0,53,-99.99,,,-99.99,,2015-08-27 17:26:00,
2015-08-27 13:34:00,72.0,53.0,-100.00,North,5,1.0,5.0,51,-99.99,,,-99.99,,2015-08-27 17:34:00,
2015-08-27 13:44:00,71.0,52.0,-100.00,WNW,300,4.0,6.0,51,-99.99,,,-99.99,,2015-08-27 17:44:00,
2015-08-27 13:54:00,73.0,52.0,-100.00,East,100,1.0,3.0,48,-99.99,,,-99.99,,2015-08-27 17:54:00,
2015-08-27 14:04:00,72.0,53.0,-100.00,West,260,4.0,6.0,51,-99.99,,,-99.99,,2015-08-27 18:04:00,
2015-08-27 14:13:00,72.0,55.0,-100.00,NW,320,3.0,7.0,53,-99.99,,,-99.99,,2015-08-27 18:13:00,
2015-08-27 14:24:00,72.0,53.0,-100.00,West,260,1.0,6.0,50,-99.99,,,-99.99,,2015-08-27 18:24:00,
2015-08-27 14:34:00,73.0,53.0,-100.00,SW,225,4.0,6.0,49,-99.99,,,-99.99,,2015-08-27 18:34:00,
2015-08-27 14:44:00,73.0,55.0,-100.00,West,270,2.0,6.0,52,-99.99,,,-99.99,,2015-08-27 18:44:00,
2015-08-27 14:55:00,73.0,51.0,-100.00,East,95,2.0,4.0,47,-99.99,,,-99.99,,2015-08-27 18:55:00,
2015-08-27 15:03:00,75.0,52.0,-100.00,SSW,205,2.0,5.0,44,-99.99,,,-99.99,,2015-08-27 19:03:00,
2015-08-27 15:13:00,75.0,55.0,-100.00,South,180,3.0,7.0,49,-99.99,,,-99.99,,2015-08-27 19:13:00,
2015-08-27 15:24:00,75.0,53.0,-100.00,NE,45,1.0,7.0,45,-99.99,,,-99.99,,2015-08-27 19:24:00,
2015-08-27 15:34:00,74.0,54.0,-100.00,ENE,70,5.0,8.0,48,-99.99,,,-99.99,,2015-08-27 19:34:00,
2015-08-27 15:44:00,74.0,54.0,-100.00,NE,40,1.0,6.0,50,-99.99,,,-99.99,,2015-08-27 19:44:00,
2015-08-27 15:54:00,73.0,53.0,-100.00,NE,40,2.0,5.0,50,-99.99,,,-99.99,,2015-08-27 19:54:00,
2015-08-27 16:04:00,75.0,53.0,-100.00,SW,225,4.0,5.0,46,-99.99,,,-99.99,,2015-08-27 20:04:00,
2015-08-27 16:13:00,76.0,53.0,-100.00,SE,130,1.0,4.0,44,-99.99,,,-99.99,,2015-08-27 20:13:00,
2015-08-27 16:23:00,78.0,53.0,-100.00,SE,140,2.0,5.0,42,-99.99,,,-99.99,,2015-08-27 20:23:00,
2015-08-27 16:34:00,77.0,53.0,-100.00,ESE,115,1.0,6.0,43,-99.99,,,-99.99,,2015-08-27 20:34:00,
2015-08-27 16:44:00,77.0,53.0,-100.00,WSW,250,2.0,5.0,42,-99.99,,,-99.99,,2015-08-27 20:44:00,
2015-08-27 16:53:00,75.0,54.0,-100.00,SW,215,2.0,6.0,47,-99.99,,,-99.99,,2015-08-27 20:53:00,
2015-08-27 17:03:00,74.0,53.0,-100.00,SE,125,0.0,6.0,47,-99.99,,,-99.99,,2015-08-27 21:03:00,
2015-08-27 17:13:00,74.0,53.0,-100.00,ESE,105,2.0,4.0,48,-99.99,,,-99.99,,2015-08-27 21:13:00,
2015-08-27 17:23:00,74.0,53.0,-100.00,SE,135,2.0,4.0,47,-99.99,,,-99.99,,2015-08-27 21:23:00,
2015-08-27 17:36:00,74.0,53.0,-100.00,NNE,25,1.0,3.0,46,-99.99,,,-99.99,,2015-08-27 21:36:00,
2015-08-27 17:44:00,75.0,55.0,-100.00,ENE,60,1.0,2.0,50,-99.99,,,-99.99,,2015-08-27 21:44:00,
2015-08-27 18:05:00,74.0,53.0,-100.00,ENE,70,1.0,3.0,49,-99.99,,,-99.99,,2015-08-27 22:05:00,
2015-08-27 18:13:00,73.0,54.0,-100.00,NNE,20,1.0,3.0,50,-99.99,,,-99.99,,2015-08-27 22:13:00,
2015-08-27 18:23:00,73.0,53.0,-100.00,NNE,20,1.0,2.0,49,-99.99,,,-99.99,,2015-08-27 22:23:00,
2015-08-27 18:33:00,73.0,55.0,-100.00,North,10,1.0,2.0,54,-99.99,,,-99.99,,2015-08-27 22:33:00,
2015-08-27 18:44:00,72.0,55.0,-100.00,NNW,340,1.0,2.0,54,-99.99,,,-99.99,,2015-08-27 22:44:00,
2015-08-27 18:53:00,72.0,55.0,-100.00,North,5,0.0,2.0,54,-99.99,,,-99.99,,2015-08-27 22:53:00,
2015-08-27 19:04:00,73.0,54.0,-100.00,NNE,25,0.0,2.0,52,-99.99,,,-99.99,,2015-08-27 23:04:00,
2015-08-27 19:13:00,73.0,55.0,-100.00,North,0,1.0,2.0,53,-99.99,,,-99.99,,2015-08-27 23:13:00,
2015-08-27 19:23:00,73.0,57.0,-100.00,ENE,70,0.0,1.0,57,-99.99,,,-99.99,,2015-08-27 23:23:00,
2015-08-27 19:34:00,73.0,58.0,-100.00,West,280,1.0,1.0,58,-99.99,,,-99.99,,2015-08-27 23:34:00,
2015-08-27 19:44:00,75.0,57.0,-100.00,West,275,1.0,3.0,53,-99.99,,,-99.99,,2015-08-27 23:44:00,
2015-08-27 19:53:00,73.0,56.0,-100.00,ENE,70,1.0,2.0,55,-99.99,,,-99.99,,2015-08-27 23:53:00,
2015-08-27 20:03:00,73.0,56.0,-100.00,NE,40,1.0,3.0,55,-99.99,,,-99.99,,2015-08-28 00:03:00,
2015-08-27 20:13:00,72.0,57.0,-100.00,ENE,70,1.0,3.0,59,-99.99,,,-99.99,,2015-08-28 00:13:00,
2015-08-27 20:23:00,71.0,56.0,-100.00,NNE,30,1.0,3.0,60,-99.99,,,-99.99,,2015-08-28 00:23:00,
2015-08-27 20:34:00,70.0,57.0,-100.00,ENE,65,0.0,2.0,63,-99.99,,,-99.99,,2015-08-28 00:34:00,
2015-08-27 20:44:00,68.0,58.0,-100.00,East,100,1.0,2.0,68,-99.99,,,-99.99,,2015-08-28 00:44:00,
2015-08-27 20:54:00,69.0,57.0,-100.00,East,80,0.0,2.0,67,-99.99,,,-99.99,,2015-08-28 00:54:00,
2015-08-27 21:03:00,67.0,57.0,-100.00,North,5,0.0,1.0,69,-99.99,,,-99.99,,2015-08-28 01:03:00,
2015-08-27 21:13:00,67.0,58.0,-100.00,NE,35,1.0,3.0,71,-99.99,,,-99.99,,2015-08-28 01:13:00,
2015-08-27 21:23:00,66.0,57.0,-100.00,NE,35,0.0,2.0,73,-99.99,,,-99.99,,2015-08-28 01:23:00,
2015-08-27 21:33:00,65.0,57.0,-100.00,NE,55,0.0,0.0,74,-99.99,,,-99.99,,2015-08-28 01:33:00,
2015-08-27 21:43:00,65.0,57.0,-100.00,North,5,1.0,2.0,76,-99.99,,,-99.99,,2015-08-28 01:43:00,
2015-08-27 21:53:00,65.0,57.0,-100.00,NNE,25,1.0,2.0,74,-99.99,,,-99.99,,2015-08-28 01:53:00,
2015-08-27 22:03:00,64.0,57.0,-100.00,NNE,25,0.0,1.0,76,-99.99,,,-99.99,,2015-08-28 02:03:00,
2015-08-27 22:13:00,64.0,57.0,-100.00,East,85,1.0,1.0,78,-99.99,,,-99.99,,2015-08-28 02:13:00,
2015-08-27 22:23:00,63.0,57.0,-100.00,North,0,1.0,2.0,80,-99.99,,,-99.99,,2015-08-28 02:23:00,
2015-08-27 22:33:00,63.0,56.0,-100.00,NE,45,0.0,2.0,77,-99.99,,,-99.99,,2015-08-28 02:33:00,
2015-08-27 22:43:00,62.0,56.0,-100.00,East,95,0.0,1.0,80,-99.99,,,-99.99,,2015-08-28 02:43:00,
2015-08-27 22:53:00,62.0,56.0,-100.00,NW,320,0.0,2.0,81,-99.99,,,-99.99,,2015-08-28 02:53:00,
2015-08-27 23:03:00,61.0,57.0,-100.00,NE,35,0.0,1.0,85,-99.99,,,-99.99,,2015-08-28 03:03:00,
2015-08-27 23:13:00,61.0,56.0,-100.00,ENE,60,0.0,1.0,85,-99.99,,,-99.99,,2015-08-28 03:13:00,
2015-08-27 23:23:00,60.0,56.0,-100.00,SSW,200,2.0,3.0,88,-99.99,,,-99.99,,2015-08-28 03:23:00,